Location: Unspecified
(0.0000°N, 0.0000°E)
Time: 04:14:03
(UTC+00:00)

Vanguard 1 - Pass Details

Date: 10 December 2023
Orbit: 653 x 3826 km, 34.3° (Epoch: 22 February)

Event Time Altitude Azimuth Distance (km) Brightness Sun altitude
Rises 18:33:54 0° 315° (NW) 5,921 14.4 -9.5°
Reaches altitude 10° 18:40:14 10° 335° (NNW) 5,541 13.9 -10.9°
Maximum altitude 18:50:05 16° 10° (N) 5,749 13.6 -13.2°
Enters shadow 19:01:15 11° 41° (NE) 6,743 13.8 -15.7°
Drops below altitude 10° 19:02:02 10° 43° (NE) 6,829 - -15.9°
Sets 19:11:46 0° 62° (ENE) 7,956 - -18.1°
